[TLELIST] Archives

 

[list_settings.list_name] Current TLEs

November 10th 2013 PDT

HST 1 20580U 90037B 13313.53869219 .00003158 00000-0 21010-3 0 3705 2 20580 028.4716 039.6436 0003547 098.7941 015.2694 15.04142437 91607 ISS (ZARYA) 1 25544U 98067A 13314.47035069 .00020439 00000-0 36480-3 0 9864 2 25544 051.6495 103.5906 0001368 110.7243 006.8160 15.50029347857391 CXO 1 25867U 99040B 13316.02651408 -.00000606 00000-0 00000+0 0 9734 2 25867 076.2092 331.1434 8407993 276.3985 359.8951 00.37804508 11091 ____________________________________________________________________ These 2-Line ...Continue Reading

[list_settings.list_name] Current TLEs

November 9th 2013 PDT

HST 1 20580U 90037B 13311.75086219 .00003485 00000-0 23323-3 0 3698 2 20580 028.4714 051.3722 0003585 080.8027 053.2569 15.04132225 91330 ISS (ZARYA) 1 25544U 98067A 13313.48972872 .00021452 00000-0 38298-3 0 9782 2 25544 051.6502 108.4482 0001223 105.8825 296.1426 15.49989477857244 CXO 1 25867U 99040B 13310.77556867 .00000000 00000-0 10000-3 0 9645 2 25867 076.1704 331.4662 8411345 276.3822 005.2956 00.37807756 11075 ____________________________________________________________________ These 2-Line ...Continue Reading

[list_settings.list_name] Current TLEs

November 8th 2013 PDT

HST 1 20580U 90037B 13311.75086219 .00003485 00000-0 23323-3 0 3698 2 20580 028.4714 051.3722 0003585 080.8027 053.2569 15.04132225 91330 ISS (ZARYA) 1 25544U 98067A 13312.45932442 -.00001132 00000-0 -11926-4 0 9715 2 25544 051.6497 113.5535 0000981 128.1625 280.5358 15.49934846857082 CXO 1 25867U 99040B 13310.77556867 .00000000 00000-0 10000-3 0 9645 2 25867 076.1704 331.4662 8411345 276.3822 005.2956 00.37807756 11075 ____________________________________________________________________ These 2-Line ...Continue Reading

[list_settings.list_name] Current TLEs

November 7th 2013 PDT

HST 1 20580U 90037B 13309.55386535 .00003212 00000-0 21408-3 0 3686 2 20580 028.4712 065.7843 0003535 060.0705 034.1182 15.04117251 90991 ISS (ZARYA) 1 25544U 98067A 13311.48982992 .00010956 00000-0 20047-3 0 9672 2 25544 051.6493 118.3502 0001416 120.0289 275.5664 15.49885352856930 CXO 1 25867U 99040B 13313.37924540 -.00000348 00000-0 00000+0 0 9721 2 25867 076.1954 331.2954 8413760 276.4028 359.6178 00.37803787 11089 ____________________________________________________________________ These 2-Line ...Continue Reading

[list_settings.list_name] Current TLEs

November 6th 2013 PDT

HST 1 20580U 90037B 13309.55386535 .00003212 00000-0 21408-3 0 3686 2 20580 028.4712 065.7843 0003535 060.0705 034.1182 15.04117251 90991 ISS (ZARYA) 1 25544U 98067A 13310.45837888 .00011953 00000-0 21810-3 0 9599 2 25544 051.6483 123.4576 0001469 117.3520 279.4309 15.49866117856771 CXO 1 25867U 99040B 13310.73349126 -.00000277 00000-0 00000+0 0 9719 2 25867 076.1841 331.4389 8417843 276.3986 359.5833 00.37801829 11077 ____________________________________________________________________ These 2-Line ...Continue Reading

[list_settings.list_name] Current TLEs

November 5th 2013 PDT

HST 1 20580U 90037B 13307.77192774 .00003143 00000-0 20926-3 0 3674 2 20580 028.4710 077.4740 0003567 042.2146 104.0922 15.04107775 90732 ISS (ZARYA) 1 25544U 98067A 13309.43517318 .00012295 00000-0 22430-3 0 9542 2 25544 051.6482 128.5250 0001443 115.3924 328.6793 15.49842381856617 CXO 1 25867U 99040B 13310.73349126 -.00000277 00000-0 00000+0 0 9719 2 25867 076.1841 331.4389 8417843 276.3986 359.5833 00.37801829 11077 ____________________________________________________________________ These 2-Line ...Continue Reading

[list_settings.list_name] Current TLEs

November 4th 2013 PDT

HST 1 20580U 90037B 13307.77192774 .00003143 00000-0 20926-3 0 3674 2 20580 028.4710 077.4740 0003567 042.2146 104.0922 15.04107775 90732 ISS (ZARYA) 1 25544U 98067A 13308.52515006 .00014648 00000-0 26575-3 0 9473 2 25544 051.6485 133.0320 0001464 114.5351 288.8315 15.49827659856479 CXO 1 25867U 99040B 13310.73349126 -.00000277 00000-0 00000+0 0 9719 2 25867 076.1841 331.4389 8417843 276.3986 359.5833 00.37801829 11077 ____________________________________________________________________ These 2-Line ...Continue Reading

[list_settings.list_name] Current TLEs

November 3rd 2013 PDT

HST 1 20580U 90037B 13306.49423873 .00002977 00000-0 19765-3 0 3661 2 20580 028.4705 085.8554 0003499 029.7230 024.5333 15.04100784 90533 ISS (ZARYA) 1 25544U 98067A 13307.36788258 .00015801 00000-0 28631-3 0 9416 2 25544 051.6486 138.7624 0001526 111.6783 310.6784 15.49797608856299 CXO 1 25867U 99040B 13308.09069878 -.00000303 00000-0 00000+0 0 9707 2 25867 076.1741 331.5890 8421019 276.3912 359.9709 00.37804885 11063 ____________________________________________________________________ These 2-Line ...Continue Reading

[list_settings.list_name] Current TLEs

November 2nd 2013 PDT

HST 1 20580U 90037B 13304.84738596 .00003773 00000-0 25376-3 0 3658 2 20580 028.4699 096.6586 0003401 013.3074 106.0650 15.04092233 90298 ISS (ZARYA) 1 25544U 98067A 13306.40103234 .00016389 00000-0 29695-3 0 9351 2 25544 051.6487 143.5505 0001547 108.7137 315.8243 15.49768884856140 CXO 1 25867U 99040B 13308.09069878 -.00000303 00000-0 00000+0 0 9707 2 25867 076.1741 331.5890 8421019 276.3912 359.9709 00.37804885 11063 ____________________________________________________________________ These 2-Line ...Continue Reading

[list_settings.list_name] Current TLEs

November 1st 2013 PDT

HST 1 20580U 90037B 13304.84738596 .00003773 00000-0 25376-3 0 3658 2 20580 028.4699 096.6586 0003401 013.3074 106.0650 15.04092233 90298 ISS (ZARYA) 1 25544U 98067A 13305.43430963 .00016836 00000-0 30514-3 0 9275 2 25544 051.6497 148.3375 0001488 105.4679 322.0627 15.49738179855990 CXO 1 25867U 99040B 13305.44497683 -.00000230 00000-0 00000+0 0 9699 2 25867 076.1600 331.7683 8422146 276.3858 359.9207 00.37806117 11052 ____________________________________________________________________ These 2-Line ...Continue Reading
  • This mailing list is a public mailing list - anyone may join or leave, at any time.
  • This mailing list is announce-only.

International Space Station (ISS) / Hubble Space Telescope (HST) / Chandra X-Ray Observatory Orbital Data via EMAIL

Privacy Policy:

Private list